Stations météo

réclame
Mon MeteoGroup
Leucate/Semaphore, France (7666): Température de l'air & dewpoint: 18.08.2019 02:00:00 - 24.08.2019 02:00:00 (CEST)Leucate/Semaphore, France (7666): Vitesse du vent & gusts: 18.08.2019 02:00:00 - 24.08.2019 02:00:00 (CEST)Leucate/Semaphore, France (7666): Direction du vent: 18.08.2019 02:00:00 - 24.08.2019 02:00:00 (CEST)Leucate/Semaphore, France (7666): reduced air pressure: 18.08.2019 02:00:00 - 24.08.2019 02:00:00 (CEST)Leucate/Semaphore, France (7666): visibility: 18.08.2019 02:00:00 - 24.08.2019 02:00:00 (CEST)Leucate/Semaphore, France (7666): Quantités de précipitations: 18.08.2019 02:00:00 - 24.08.2019 02:00:00 (CEST)
Date & Time tt [°C] td [°C] ff [km/h] ff [knt] fx [km/h] fx [knt] dd ppp [hPa] vv [km] rr [mm]
24.08.2019 02:00:00 21,7 19,8 6 3 20 11 NNE 1018,6 - 0,0
24.08.2019 01:00:00 21,8 19,7 7 4 24 13 NNE 1018,4 - 0,0
24.08.2019 00:00:00 22,2 19,7 10 5 21 11 NNE 1018,1 - 0,0
23.08.2019 23:00:00 23,1 17,1 3 2 19 11 ENE 1017,5 - 0,0
23.08.2019 22:00:00 23,9 15,9 15 8 25 14 SSW 1017,4 - 0,0
23.08.2019 21:00:00 23,5 16,5 13 7 23 12 SW 1017,4 - 0,0
23.08.2019 20:00:00 24,9 15,5 10 5 26 14 S 1017,5 25 0,0
23.08.2019 19:00:00 24,8 15,7 16 9 24 13 S 1017,6 - 0,0
23.08.2019 18:00:00 24,4 17,4 16 9 21 11 S 1017,8 - 0,0
23.08.2019 17:00:00 24,5 17,5 16 8 19 11 S 1018,0 25 0,0
23.08.2019 16:00:00 25,1 17,8 14 8 18 10 S 1018,4 - 0,0
23.08.2019 15:00:00 24,6 17,3 13 7 19 10 SE 1018,9 - 0,0
23.08.2019 14:00:00 24,6 16,3 17 9 23 12 SE 1019,2 25 0,0
23.08.2019 13:00:00 24,7 16,9 11 6 15 8 SE 1019,4 - 0,0
23.08.2019 12:00:00 24,5 14,6 6 3 10 5 SE 1019,5 - 0,0
23.08.2019 11:00:00 24,4 14,5 5 3 10 5 ENE 1019,8 25 0,0
23.08.2019 10:00:00 23,4 14,7 6 3 10 5 NNE 1019,9 - 0,0
23.08.2019 09:00:00 24,0 12,6 4 2 11 6 SW 1019,8 - 0,0
23.08.2019 08:00:00 21,5 9,7 11 6 14 7 WSW 1019,7 - 0,0
23.08.2019 07:00:00 21,0 8,9 8 4 15 8 NW 1019,7 - 0,0
23.08.2019 06:00:00 20,3 11,5 10 5 14 8 NW 1019,8 - 0,0
23.08.2019 05:00:00 21,6 12,2 11 6 20 11 N 1019,9 - 0,0
23.08.2019 04:00:00 21,7 13,6 6 4 22 12 NNW 1020,1 - 0,0
23.08.2019 03:00:00 22,4 13,7 11 6 24 13 NNW 1019,9 - 0,0
23.08.2019 02:00:00 23,7 8,5 16 9 24 13 NNW 1019,7 - 0,0
23.08.2019 01:00:00 24,3 8,3 13 7 24 13 NW 1019,8 - 0,0
23.08.2019 00:00:00 25,1 8,1 16 8 31 17 WNW 1019,7 - 0,0
22.08.2019 23:00:00 26,1 8,1 16 9 32 17 WNW 1019,7 - 0,0
22.08.2019 22:00:00 26,6 8,5 19 10 41 22 NW 1019,5 - 0,0
22.08.2019 21:00:00 27,3 8,2 18 10 36 20 NW 1019,2 - 0,0
22.08.2019 20:00:00 29,1 7,1 20 11 39 21 NW 1018,7 25 0,0
22.08.2019 19:00:00 31,1 6,9 18 10 41 22 NW 1018,0 - 0,0
22.08.2019 18:00:00 31,9 6,9 19 10 38 20 NW 1018,3 - 0,0
22.08.2019 17:00:00 32,0 8,3 16 9 32 17 NNW 1018,5 25 0,0
22.08.2019 16:00:00 31,7 8,0 18 10 37 20 NNW 1018,8 - 0,0
22.08.2019 15:00:00 31,5 6,5 18 10 40 22 NW 1019,2 - 0,0
22.08.2019 14:00:00 30,4 6,9 21 11 46 25 NNW 1019,5 - 0,0
22.08.2019 13:00:00 29,5 6,8 24 13 53 29 NW 1019,8 - 0,0
22.08.2019 12:00:00 28,8 7,9 24 13 47 26 NW 1020,0 - 0,0
22.08.2019 11:00:00 27,6 8,9 24 13 56 30 NW 1019,9 25 0,0
22.08.2019 10:00:00 25,9 9,3 25 14 51 28 NW 1019,8 - 0,0
22.08.2019 09:00:00 23,5 9,8 20 11 37 20 NW 1019,8 - 0,0
22.08.2019 08:00:00 21,3 9,2 15 8 34 18 NW 1019,5 22 0,0
22.08.2019 07:00:00 21,7 8,6 18 10 39 21 NW 1018,9 - 0,0
22.08.2019 06:00:00 22,6 8,3 25 13 47 26 NW 1018,5 - 0,0
22.08.2019 05:00:00 22,8 8,9 22 12 40 22 NW 1018,7 - 0,0
22.08.2019 04:00:00 22,9 9,3 21 11 47 25 NW 1018,7 - 0,0
22.08.2019 03:00:00 23,2 9,9 22 12 42 23 NW 1018,9 - 0,0
22.08.2019 02:00:00 23,5 10,2 19 10 42 23 NW 1019,2 - 0,0
22.08.2019 01:00:00 24,1 10,0 22 12 39 21 NW 1019,2 - 0,0
22.08.2019 00:00:00 23,9 9,8 14 8 36 20 NW 1019,2 - 0,0
21.08.2019 23:00:00 24,2 9,7 22 12 42 23 WNW 1019,0 - 0,0
21.08.2019 22:00:00 24,4 9,9 22 12 40 21 NW 1018,6 - 0,0
21.08.2019 21:00:00 24,7 10,6 22 12 40 22 NW 1018,1 - 0,0
21.08.2019 20:00:00 25,8 8,7 16 9 40 21 NW 1017,8 30 0,0
21.08.2019 19:00:00 26,9 7,9 22 12 44 24 NW 1017,7 - 0,0
21.08.2019 18:00:00 28,0 5,5 21 11 44 24 NW 1017,7 - 0,0
21.08.2019 17:00:00 30,3 2,5 21 11 39 21 NW 1017,9 30 0,0
21.08.2019 16:00:00 30,1 6,0 16 9 34 19 NNW 1018,0 - 0,0
21.08.2019 15:00:00 29,7 5,0 18 10 41 22 NNW 1018,4 - 0,0
21.08.2019 14:00:00 28,9 4,4 22 12 49 26 NW 1018,7 - 0,0
21.08.2019 13:00:00 27,3 7,7 26 14 46 25 NW 1019,3 - 0,0
21.08.2019 12:00:00 26,3 8,3 22 12 48 26 NW 1019,7 - 0,0
21.08.2019 11:00:00 25,1 7,7 24 13 50 27 NW 1020,1 30 0,0
21.08.2019 10:00:00 23,4 9,4 26 14 48 26 NW 1020,1 - 0,0
21.08.2019 09:00:00 21,8 9,7 26 14 57 31 NW 1020,0 - 0,0
21.08.2019 08:00:00 20,1 9,6 25 14 52 28 NW 1020,2 - 0,0
21.08.2019 07:00:00 18,4 10,0 23 12 42 23 NW 1020,5 - 0,0
21.08.2019 06:00:00 18,7 10,0 18 10 36 19 NW 1020,4 - 0,0
21.08.2019 05:00:00 19,3 10,3 20 11 39 21 NW 1020,7 30 0,0
21.08.2019 04:00:00 19,3 11,6 21 12 39 21 NW 1021,0 - 0,0
21.08.2019 03:00:00 19,4 12,4 24 13 45 25 WNW 1021,5 - 0,0
21.08.2019 02:00:00 19,0 12,5 18 10 33 18 NW 1021,8 - 0,0
21.08.2019 01:00:00 19,5 12,5 19 10 37 20 NW 1022,3 - 0,0
21.08.2019 00:00:00 19,7 12,2 20 11 40 22 WNW 1022,6 - 0,0
20.08.2019 23:00:00 19,7 12,5 22 12 39 21 WNW 1022,6 - 0,0
20.08.2019 22:00:00 19,8 12,8 20 11 46 25 NW 1022,5 - 0,0
20.08.2019 21:00:00 20,6 12,8 23 12 51 28 NW 1022,1 - 0,0
20.08.2019 20:00:00 22,2 13,0 24 13 48 26 NW 1021,6 30 0,0
20.08.2019 19:00:00 23,5 12,8 23 13 46 25 NW 1021,3 - 0,0
20.08.2019 18:00:00 23,7 13,0 25 13 58 32 NW 1021,3 - 0,0
20.08.2019 17:00:00 22,0 13,9 30 16 55 30 NW 1021,1 30 0,0
20.08.2019 16:00:00 19,5 14,1 29 15 66 36 NW 1021,3 - 0,0
20.08.2019 15:00:00 19,1 14,1 27 14 54 29 NNW 1021,1 - 0,0
20.08.2019 14:00:00 19,9 13,6 29 16 61 33 NW 1021,2 30 0,0
20.08.2019 13:00:00 21,5 13,4 31 17 68 37 NW 1020,9 - 0,0
20.08.2019 12:00:00 21,6 13,0 36 19 66 36 NW 1020,3 - 0,0
20.08.2019 11:00:00 22,0 13,1 29 16 55 30 NW 1019,5 30 0,0
20.08.2019 10:00:00 20,1 13,3 31 17 60 32 NW 1019,1 - 0,0
20.08.2019 09:00:00 19,3 13,0 26 14 65 35 NW 1019,0 - 0,0
20.08.2019 08:00:00 19,3 12,8 32 17 57 31 NW 1018,4 30 0,0
20.08.2019 07:00:00 19,2 12,5 26 14 50 27 NW 1018,1 - 0,0
20.08.2019 06:00:00 19,4 12,2 20 11 42 23 NW 1017,3 - 0,0
20.08.2019 05:00:00 19,4 12,4 22 12 41 22 NW 1017,4 30 0,0
20.08.2019 04:00:00 19,7 12,2 15 8 30 16 NW 1017,9 - 0,0
20.08.2019 03:00:00 19,9 12,2 17 9 51 27 NW 1018,0 - 0,0
20.08.2019 02:00:00 21,2 11,5 24 13 49 26 NW 1018,1 - 0,0
20.08.2019 01:00:00 21,8 11,2 24 13 50 27 NW 1018,3 - 0,0
20.08.2019 00:00:00 22,3 10,8 25 13 52 28 NW 1018,1 - 0,0
19.08.2019 23:00:00 22,5 10,3 22 12 49 26 NW 1018,2 - 0,0
19.08.2019 22:00:00 22,6 10,4 23 13 50 27 NW 1018,2 - 0,0
19.08.2019 21:00:00 23,0 10,8 23 12 47 26 NW 1017,5 - 0,0
19.08.2019 20:00:00 23,9 10,6 21 11 45 25 NW 1017,4 30 0,0
19.08.2019 19:00:00 24,4 10,7 21 11 44 24 NW 1017,1 - 0,0
19.08.2019 18:00:00 24,3 10,9 20 11 42 23 NW 1017,2 - 0,0
19.08.2019 17:00:00 24,0 12,6 25 13 48 26 WNW 1017,3 30 0,0
19.08.2019 16:00:00 24,4 13,0 23 12 45 25 NW 1017,2 - 0,0
19.08.2019 15:00:00 24,1 13,3 25 14 49 27 NW 1017,6 - 0,0
19.08.2019 14:00:00 23,8 13,3 26 14 51 28 NW 1017,5 25 0,0
19.08.2019 13:00:00 24,0 13,8 24 13 51 28 NW 1017,2 - 0,0
19.08.2019 12:00:00 23,4 14,1 27 14 56 30 NW 1017,1 - 0,0
19.08.2019 11:00:00 23,0 14,0 27 14 62 34 NW 1016,6 25 0,0
19.08.2019 10:00:00 22,2 13,5 26 14 61 33 NW 1016,3 - 0,0
19.08.2019 09:00:00 22,0 13,6 31 17 58 31 NW 1016,5 - 0,0
19.08.2019 08:00:00 20,8 13,0 30 16 64 35 NW 1016,1 25 0,0
19.08.2019 07:00:00 20,4 12,9 33 18 66 35 NW 1015,4 - 0,0
19.08.2019 06:00:00 20,8 12,7 31 17 62 34 NW 1014,9 - 0,0
19.08.2019 05:00:00 21,6 15,7 26 14 50 27 NW 1014,9 15 0,0
19.08.2019 04:00:00 20,7 18,6 14 8 36 19 NW 1015,2 - 0,0
19.08.2019 03:00:00 22,3 21,3 11 6 14 8 N 1015,0 - 0,0
19.08.2019 02:00:00 22,4 21,2 6 3 10 6 N 1015,3 - 0,0
19.08.2019 01:00:00 22,4 21,4 4 2 17 9 NNW 1015,1 - 0,0
19.08.2019 00:00:00 22,3 21,3 9 5 13 7 N 1014,8 - 0,0
18.08.2019 23:00:00 22,4 21,4 10 5 24 13 E 1014,4 - 0,0
18.08.2019 22:00:00 22,4 21,4 16 9 31 17 E 1013,5 - 0,0
18.08.2019 21:00:00 22,5 21,5 19 10 37 20 E 1012,8 - 0,0
18.08.2019 20:00:00 22,6 21,2 26 14 40 22 E 1012,2 8 0,2
18.08.2019 19:00:00 22,8 21,3 24 13 42 23 E 1012,3 - 0,0
18.08.2019 18:00:00 22,9 21,4 24 13 35 19 E 1012,5 - 0,0
18.08.2019 17:00:00 23,0 21,3 15 8 33 18 ENE 1012,6 - 0,0
18.08.2019 16:00:00 23,2 21,3 16 8 30 16 NE 1012,5 - 0,0
18.08.2019 15:00:00 23,7 21,2 13 7 37 20 NNE 1012,6 - 0,0
18.08.2019 14:00:00 24,1 21,8 34 18 49 27 SE 1011,5 8 0,0
18.08.2019 13:00:00 24,1 21,8 39 21 46 25 SE 1011,2 - 0,0
18.08.2019 12:00:00 24,4 21,7 25 13 36 19 SE 1011,2 - 0,0
18.08.2019 11:00:00 24,7 21,8 20 11 27 15 SE 1011,2 8 0,0
18.08.2019 10:00:00 23,5 19,2 6 3 13 7 E 1011,1 - 0,0
18.08.2019 09:00:00 22,5 21,5 8 4 13 7 N 1011,0 - 0,0
18.08.2019 08:00:00 21,7 20,9 5 3 9 5 NE 1011,0 - 0,0
18.08.2019 07:00:00 21,6 20,6 5 3 13 7 ENE 1011,1 0,3 0,0
18.08.2019 06:00:00 21,9 20,9 4 2 12 7 NE 1011,2 - 0,0
18.08.2019 05:00:00 21,9 20,9 3 2 16 8 NE 1011,6 6 0,0
18.08.2019 04:00:00 22,1 20,9 6 3 10 6 E 1012,2 - 0,0
18.08.2019 03:00:00 21,8 20,3 5 3 13 7 NNW 1012,5 - 0,0
18.08.2019 02:00:00 22,0 20,8 6 3 20 11 N 1013,1 - 0,0

tt = Température de l'air
td = dewpoint
ff = Vitesse du vent
fx = gusts
dd = Direction du vent
ppp = reduced air pressure
vv = visibility
rr = Quantités de précipitations

stations d'obs. à proximité